This demonstration page uses our WeatherBlox Daily Observations layout. Learn more.

Left ArrowRight Arrow

34.02893, -84.19858

Hourly Observations for March 29, 2022

Temp ( °F °C ) Dew Point ( °F °C ) Humidity (%) Winds ( mph kmh ) Pressure ( in mb ) Visibility ( mi km ) Precip ( " mm )
12:53 am 00:53 Clear 50 10 26 -3.3 39 39 Calm 30.13 1020 10 16 0.00 0.00
1:53 am 01:53 Clear 44 6.7 31 -0.6 60 60 Calm 30.13 1020 10 16 0.00 0.00
2:53 am 02:53 Clear 43 6.1 31 -0.6 63 63 Calm 30.12 1020 10 16 0.00 0.00
3:53 am 03:53 Mostly Cloudy 44 6.7 36 2.2 73 73 Calm 30.11 1020 10 16 0.00 0.00
4:53 am 04:53 Cloudy 49 9.4 31 -0.6 50 50 Calm 30.11 1020 10 16 0.00 0.00
5:53 am 05:53 Mostly Cloudy 48 8.9 33 0.6 56 56 Calm 30.13 1020 10 16 0.00 0.00
6:53 am 06:53 Mostly Cloudy 48 8.9 32 0 54 54 Calm 30.17 1022 10 16 0.00 0.00
7:53 am 07:53 Cloudy 50 10 29 -1.7 44 44 Calm 30.19 1022 10 16 0.00 0.00
8:53 am 08:53 Partly Cloudy 52 11.1 27 -2.8 38 38 undefined N/A 30.21 1023 10 16 0.00 0.00
9:53 am 09:53 Cloudy 55 12.8 29 -1.7 37 37 Calm 30.23 1024 10 16 0.00 0.00
10:53 am 10:53 Partly Cloudy 58 14.4 26 -3.3 29 29 VRB 5 7 30.23 1024 10 16 0.00 0.00
11:53 am 11:53 Sunny 61 16.1 29 -1.7 30 30 VRB 5 7 30.21 1023 10 16 0.00 0.00
12:53 pm 12:53 Sunny 63 17.2 31 -0.6 30 30 SE 7 11 30.19 1022 10 16 0.00 0.00
1:53 pm 13:53 Sunny 67 19.4 35 1.7 31 31 VRB 6 9 30.16 1021 10 16 0.00 0.00
2:53 pm 14:53 Sunny 69 20.6 39 3.9 33 33 VRB 5 7 30.14 1021 10 16 0.00 0.00
3:53 pm 15:53 Sunny 70 21.1 41 5 35 35 undefined N/A 30.11 1020 10 16 0.00 0.00
4:53 pm 16:53 Sunny 71 21.7 42 5.6 35 35 SSE 7 11 30.08 1019 10 16 0.00 0.00
5:53 pm 17:53 Sunny 71 21.7 43 6.1 36 36 VRB 5 7 30.06 1018 10 16 0.00 0.00
6:53 pm 18:53 Sunny 70 21.1 43 6.1 38 38 VRB 5 7 30.05 1018 8 13 0.00 0.00
7:53 pm 19:53 Sunny 68 20 43 6.1 40 40 VRB 3 6 30.05 1018 7 11 0.00 0.00
8:53 pm 20:53 Clear 66 18.9 42 5.6 42 42 VRB 3 6 30.06 1018 8 13 0.00 0.00
9:53 pm 21:53 Clear 64 17.8 42 5.6 45 45 Calm 30.07 1018 8 13 0.00 0.00
10:53 pm 22:53 Clear 63 17.2 41 5 45 45 VRB 3 6 30.06 1018 9 14 0.00 0.00
11:53 pm 23:53 Mostly Clear 62 16.7 42 5.6 48 48 Calm 30.06 1018 10 16 0.00 0.00

Powered by AerisWeather